Regional Weather Roundup
Issued by NWS State College, PA

Home | Current Version | Previous Version | Text Only | Print | Product List | Glossary On
Versions: 1 2 3 4 5 6 7 8 9 10 11 12 13 14 15 16 17 18 19 20 21 22 23 24 25 26 27 28 29 30 31 32 33 34 35 36 37 38 39 40 41 42 43 44 45 46 47 48 49 50
000
ASUS41 KCTP 280403
RWRCTP

REGIONAL WEATHER ROUNDUP
NATIONAL WEATHER SERVICE STATE COLLEGE PA
1200 AM EDT TUE JUL 28 2015

Note: "fair" indicates few or no clouds below 12,000 feet with no
significant weather and/or obstructions to visibility.

* = STATION THAT DOES NOT REPORT PRECIPITATION /E.G. RAIN...SNOW...ETC/
    THUNDER OR FOG.

PAZ002>004-007>009-013>016-020>023-029>032-280500-
WESTERN PENNSYLVANIA

CITY           SKY/WX    TMP DP  RH WIND       PRES   REMARKS
ERIE           CLEAR     69  60  73 S3        30.05R
MEADVILLE      LGT RAIN  72  60  66 NE5       30.08R
FRANKLIN*      CLEAR     70  59  68 NE5       30.09R
NEW CASTLE     FAIR      68  66  93 CALM      30.06R
BEAVER COUNTY  NOT AVBL
BUTLER*        CLEAR     70  64  83 NE3       30.07R
PITTSBURGH INT PTCLDY    78  62  57 N6        30.04R
PITTSBURGH     CLEAR     75  63  66 CALM      30.03R
INDIANA*       CLOUDY    73  70  88 CALM      30.10R
LATROBE        NOT AVBL
WASHINGTON CO* NOT AVBL
$$

PAZ004>006-010>012-017>019-024>028-033>037-041-042-045-046-049>053-280500-
CENTRAL PENNSYLVANIA

CITY           SKY/WX    TMP DP  RH WIND       PRES   REMARKS
BRADFORD       CLEAR     62  58  86 CALM      30.12R
DUBOIS         CLEAR     71  64  78 CALM      30.08R
CLEARFIELD     CLEAR     67  64  90 N7        30.08R
JOHNSTOWN      MOCLDY    70  66  87 SE3       30.10S
ALTOONA        CLEAR     69  66  90 CALM      30.08R FOG
STATE COLLEGE  CLEAR     69  68  97 CALM      30.07R FOG
WILLIAMSPORT   CLEAR     71  67  87 CALM      30.02R
SELINSGROVE    CLEAR     68  66  93 CALM      30.04R FOG
FT INDIANTOWN  PTCLDY    71  70  97 E2        30.03S FOG
CAPITAL CITY   CLEAR     77  70  79 CALM      30.02S
HARRISBURG     MOCLDY    77  72  84 SE3       30.02R
YORK           CLEAR     71  69  93 CALM      30.03S FOG
$$

PAZ038>040-043-044-047-048-054-055-060>062-067>071-280500-
EASTERN PENNSYLVANIA

CITY           SKY/WX    TMP DP  RH WIND       PRES   REMARKS
SCRANTON       CLEAR     68  66  93 E3        30.04S
MOUNT POCONO   CLEAR     65  63  93 NW3       30.09S FOG
ALLENTOWN      PTCLDY    75  70  84 SW7       30.03R
QUAKERTOWN*    CLEAR     73  72  94 CALM      30.04S
READING        CLEAR     74  69  85 CALM      30.02R
LANCASTER      CLEAR     74  70  87 CALM      30.03S
COATESVILLE    CLEAR     72  72 100 CALM      30.05S FOG
POTTSTOWN      CLEAR     72  71  97 CALM      30.04S
BLUE BELL      CLEAR     73  72  94 CALM      30.02S
DOYLESTOWN     CLEAR     72  70  93 CALM      30.02S
WILLOW GROVE   NOT AVBL
NORTH PHILA    CLEAR     76  68  76 S3        30.03S
PHILADELPHIA   MOCLDY    78  71  79 S5        30.02S
$$


USA.gov is the U.S. government's official web portal to all federal, state and local government web resources and services.